This demonstration page uses our WeatherBlox Daily Observations layout. Learn more.

Left ArrowRight Arrow

39.51506, -84.39828

Hourly Observations for September 14, 2020

Temp ( °F °C ) Dew Point ( °F °C ) Humidity (%) Winds ( mph kmh ) Pressure ( in mb ) Visibility ( mi km ) Precip ( " mm )
12:15 am 00:15 Clear 63 17.3 62 16.4 94 94 N 3 6 30.17 1022 10 16.0934 0 0
12:35 am 00:35 Clear 63 17.2 61 16.3 94 94 NNW 5 7 30.18 1022 10 16.0934 0 0
12:55 am 00:55 Clear 63 17.4 61 16.1 92 92 NNW 5 7 30.19 1022 10 16.0934 0 0
1:15 am 01:15 Clear 62 16.9 60 15.8 93 93 N 3 6 30.19 1022 10 16.0934 0 0
1:35 am 01:35 Clear 62 16.9 60 15.7 93 93 N 5 7 30.2 1023 10 16.0934 0 0
1:55 am 01:55 Clear 63 17.1 60 15.6 91 91 N 3 6 30.2 1023 10 16.0934 0 0
2:15 am 02:15 Clear 63 17 60 15.4 90 90 N 3 6 30.21 1023 10 16.0934 0 0
2:35 am 02:35 Clear 63 17.1 60 15.3 89 89 NNE 6 9 30.21 1023 10 16.0934 0 0
2:55 am 02:55 Clear 62 16.9 59 15.2 90 90 NNE 3 6 30.21 1023 10 16.0934 0 0
3:15 am 03:15 Clear 62 16.7 59 15.1 90 90 Calm 30.21 1023 10 16.0934 0 0
3:35 am 03:35 Clear 61 16.2 59 14.9 92 92 NNE 3 6 30.21 1023 10 16.0934 0 0
3:55 am 03:55 Clear 61 16.2 59 14.8 91 91 NNE 5 7 30.22 1023 10 16.0934 0 0
4:15 am 04:15 Clear 61 16.1 59 14.8 92 92 NNE 5 7 30.22 1023 10 16.0934 0 0
4:35 am 04:35 Clear 60 15.8 58 14.7 93 93 Calm 30.23 1024 10 16.0934 0 0
4:55 am 04:55 Clear 60 15.3 58 14.6 96 96 N 3 6 30.24 1024 10 16.0934 0 0
5:15 am 05:15 Clear 59 15.2 58 14.5 96 96 N 5 7 30.24 1024 10 16.0934 0 0
5:35 am 05:35 Clear 59 15.2 58 14.5 96 96 N 6 9 30.25 1024 10 16.0934 0 0
5:55 am 05:55 Clear 59 15 58 14.4 96 96 N 3 6 30.26 1025 10 16.0934 0 0
6:15 am 06:15 Clear 59 14.9 58 14.4 97 97 N 7 11 30.26 1025 10 16.0934 0 0
6:35 am 06:35 Clear 59 14.8 58 14.3 97 97 N 5 7 30.26 1025 10 16.0934 0 0
6:55 am 06:55 Clear 58 14.5 57 14.1 97 97 N 3 6 30.27 1025 10 16.0934 0 0
7:15 am 07:15 Clear 58 14.3 57 14 98 98 Calm 30.27 1025 10 16.0934 0 0
7:35 am 07:35 Sunny 58 14.4 57 14 97 97 Calm 30.28 1025 10 16.0934 0 0
7:55 am 07:55 Sunny 58 14.5 58 14.2 98 98 N 3 6 30.29 1026 10 16.0934 0 0
8:15 am 08:15 Sunny 59 15 58 14.5 97 97 NNE 5 7 30.3 1026 10 16.0934 0 0
8:35 am 08:35 Sunny 60 15.6 59 14.8 95 95 NNE 5 7 30.3 1026 10 16.0934 0 0
8:55 am 08:55 Sunny 62 16.5 59 15.2 92 92 NNE 6 9 30.29 1026 10 16.0934 0 0
9:15 am 09:15 Sunny 63 17.1 60 15.4 90 90 NNE 7 11 30.3 1026 10 16.0934 0 0
9:35 am 09:35 Sunny 65 18.1 60 15.8 87 87 NE 8 13 30.3 1026 10 16.0934 0 0
9:55 am 09:55 Sunny 66 18.9 61 16 83 83 NE 9 15 30.31 1026 10 16.0934 0 0
10:15 am 10:15 Sunny 68 19.9 61 16 78 78 ENE 12 19 30.31 1027 10 16.0934 0 0
10:35 am 10:35 Sunny 69 20.5 60 15.6 74 74 ENE 9 15 30.31 1027 10 16.0934 0 0
10:55 am 10:55 Partly Cloudy 70 21.1 60 15.7 71 71 NNE 7 11 30.31 1026 10 16.0934 0 0
11:15 am 11:15 Partly Cloudy 71 21.9 61 15.9 69 69 ENE 10 17 30.31 1026 10 16.0934 0 0
11:35 am 11:35 Partly Cloudy 73 22.5 61 16.1 67 67 E 13 20 30.31 1026 10 16.0934 0 0
11:55 am 11:55 Sunny 73 22.6 60 15.8 66 66 ENE 9 15 30.31 1026 10 16.0934 0 0
12:15 pm 12:15 Sunny 73 22.8 61 16.2 66 66 NE 8 13 30.31 1026 10 16.0934 0 0
12:35 pm 12:35 Partly Cloudy 74 23.6 60 15.8 62 62 E 9 15 30.3 1026 10 16.0934 0 0
12:55 pm 12:55 Sunny 76 24.4 60 15.4 57 57 E 12 19 30.29 1026 10 16.0934 0 0
1:15 pm 13:15 Sunny 76 24.2 59 14.8 56 56 ENE 6 9 30.29 1026 10 16.0934 0 0
1:35 pm 13:35 Sunny 77 24.8 57 13.8 50 50 NE 7 11 30.28 1026 10 16.0934 0 0
1:55 pm 13:55 Sunny 77 25 57 13.9 50 50 E 5 7 30.28 1025 10 16.0934 0 0
2:15 pm 14:15 Partly Cloudy 78 25.6 58 14.3 50 50 E 9 15 30.28 1025 10 16.0934 0 0
2:35 pm 14:35 Partly Cloudy 78 25.3 57 14 50 50 E 9 15 30.27 1025 10 16.0934 0 0
2:55 pm 14:55 Sunny 77 25.1 56 13.6 49 49 NNE 8 13 30.27 1025 10 16.0934 0 0
3:15 pm 15:15 Partly Cloudy 78 25.4 57 13.7 48 48 ENE 9 15 30.27 1025 10 16.0934 0 0
3:35 pm 15:35 Partly Cloudy 77 25.2 58 14.3 51 51 NE 12 19 30.27 1025 10 16.0934 0 0
3:55 pm 15:55 Partly Cloudy 77 25.2 57 13.7 49 49 E 9 15 30.26 1025 10 16.0934 0 0
4:15 pm 16:15 Partly Cloudy 76 24.6 56 13.6 50 50 NNE 8 13 30.26 1025 10 16.0934 0 0
4:35 pm 16:35 Partly Cloudy 76 24.7 57 13.8 51 51 NNE 10 17 30.26 1025 10 16.0934 0 0
4:55 pm 16:55 Mostly Cloudy 76 24.3 56 13.2 50 50 ENE 13 20 30.26 1025 10 16.0934 0 0
5:15 pm 17:15 Sunny 76 24.2 56 13.4 51 51 NE 8 13 30.26 1025 10 16.0934 0 0
5:35 pm 17:35 Mostly Cloudy 75 23.8 56 13.4 52 52 ENE 9 15 30.27 1025 10 16.0934 0 0
5:55 pm 17:55 Mostly Cloudy 74 23.6 56 13.6 54 54 NE 6 9 30.27 1025 10 16.0934 0 0
6:15 pm 18:15 Mostly Cloudy 74 23.3 57 14 56 56 NNE 9 15 30.27 1025 10 16.0934 0 0
6:35 pm 18:35 Sunny 73 22.8 56 13.5 56 56 ENE 9 15 30.27 1025 10 16.0934 0 0
6:55 pm 18:55 Sunny 72 22.3 57 14 59 59 NE 5 7 30.28 1025 10 16.0934 0 0
7:15 pm 19:15 Partly Cloudy 71 21.4 57 14.1 63 63 NNE 3 6 30.28 1025 10 16.0934 0 0
7:35 pm 19:35 Partly Cloudy 69 20.8 58 14.4 67 67 N 3 6 30.28 1025 10 16.0934 0 0
7:55 pm 19:55 Partly Cloudy 69 20.3 58 14.2 68 68 NNE 7 11 30.28 1026 10 16.0934 0 0
8:15 pm 20:15 Clear 67 19.7 57 13.8 69 69 NNE 7 11 30.29 1026 10 16.0934 0 0
8:35 pm 20:35 Clear 67 19.6 57 13.7 69 69 NNE 5 7 30.3 1026 10 16.0934 0 0
8:55 pm 20:55 Clear 65 18.5 56 13.6 73 73 NNE 5 7 30.31 1026 10 16.0934 0 0
9:15 pm 21:15 Clear 65 18.3 56 13.5 74 74 NE 6 9 30.32 1027 10 16.0934 0 0
9:35 pm 21:35 Clear 64 17.7 56 13.4 76 76 NE 5 7 30.32 1027 10 16.0934 0 0
9:55 pm 21:55 Clear 62 16.6 56 13.3 81 81 Calm 30.33 1027 10 16.0934 0 0
10:15 pm 22:15 Clear 62 16.7 55 12.9 78 78 NNE 3 6 30.33 1027 10 16.0934 0 0
10:35 pm 22:35 Clear 61 16.2 56 13.4 84 84 Calm 30.33 1027 10 16.0934 0 0
10:55 pm 22:55 Clear 60 15.4 56 13.1 86 86 Calm 30.34 1027 10 16.0934 0 0
11:15 pm 23:15 Clear 60 15.4 55 13 86 86 NNE 5 7 30.34 1027 10 16.0934 0 0
11:35 pm 23:35 Clear 60 15.6 56 13.3 86 86 NE 6 9 30.34 1027 10 16.0934 0 0
11:55 pm 23:55 Clear 60 15.6 56 13.1 85 85 NE 7 11 30.34 1027 10 16.0934 0 0

Powered by AerisWeather